User: anonymous
Location: Vancouver
(49.2500°N, 123.1330°W)
Time: 00:24:27
(UTC-07:00)
Language:

Iridium 21 - Orbit

View from above orbital plane
View from above orbital plane
View from above satellite
View from above satellite

Ground track
Ground track

The orbit data is extracted from the following two-line orbital elements,

1 25778U 99032B   14258.13771532  .00000180  00000-0  57183-4 0  8807
2 25778 086.3924 284.4802 0002555 111.5197 307.5110 14.34219012803918
Epoch (UTC): 15 September 2014 03:18:18
Eccentricity: 0.0002555
inclination: 86.3924°
perigee height: 776 km
apogee height: 779 km
right ascension of ascending node: 284.4802°
argument of perigee: 111.5197°
revolutions per day: 14.34219012
mean anomaly at epoch: 307.5110°
orbit number at epoch: 80391

The dashed part of the orbit path shows where the satellite is in the earth's shadow,  

DLR